TimeEDT,TemperatureF,Dew PointF,Humidity,Sea Level PressureIn,VisibilityMPH,Wind Direction,Wind SpeedMPH,Gust SpeedMPH,PrecipitationIn,Events,Conditions,WindDirDegrees,DateUTC
12:53 AM,48.9,46.9,93,30.04,6.0,Calm,Calm,-,N/A,,Clear,0,2013-10-12 04:53:00
1:36 AM,48.2,46.4,93,30.05,1.8,Calm,Calm,-,N/A,,Clear,0,2013-10-12 05:36:00
1:51 AM,48.2,46.4,93,30.05,3.0,Calm,Calm,-,N/A,,Clear,0,2013-10-12 05:51:00
1:53 AM,48.9,46.9,93,30.04,3.0,Calm,Calm,-,N/A,,Clear,0,2013-10-12 05:53:00
2:07 AM,48.2,46.4,93,30.05,2.5,Calm,Calm,-,N/A,,Clear,0,2013-10-12 06:07:00
2:15 AM,48.2,46.4,93,30.05,5.0,Calm,Calm,-,N/A,,Clear,0,2013-10-12 06:15:00
2:53 AM,48.9,46.9,93,30.05,10.0,Calm,Calm,-,N/A,,Clear,0,2013-10-12 06:53:00
3:53 AM,46.9,46.0,97,30.05,7.0,Calm,Calm,-,N/A,,Clear,0,2013-10-12 07:53:00
4:53 AM,48.0,46.0,93,30.04,8.0,Calm,Calm,-,N/A,,Clear,0,2013-10-12 08:53:00
5:53 AM,48.0,46.0,93,30.05,9.0,Calm,Calm,-,N/A,,Clear,0,2013-10-12 09:53:00
6:53 AM,48.0,46.0,93,30.06,7.0,Calm,Calm,-,N/A,,Partly Cloudy,0,2013-10-12 10:53:00
7:20 AM,46.4,46.4,100,30.07,2.5,Calm,Calm,-,N/A,,Mostly Cloudy,0,2013-10-12 11:20:00
7:23 AM,46.4,44.6,93,30.07,1.0,Calm,Calm,-,N/A,,Mist,0,2013-10-12 11:23:00
7:30 AM,46.4,44.6,93,30.06,0.5,Calm,Calm,-,N/A,Fog,Fog,0,2013-10-12 11:30:00
7:37 AM,46.4,46.4,100,30.06,3.0,Calm,Calm,-,N/A,,Scattered Clouds,0,2013-10-12 11:37:00
7:53 AM,46.9,45.0,93,30.07,9.0,Calm,Calm,-,N/A,,Partly Cloudy,0,2013-10-12 11:53:00
8:53 AM,53.1,50.0,89,30.08,9.0,Calm,Calm,-,N/A,,Clear,0,2013-10-12 12:53:00
9:53 AM,61.0,55.0,81,30.08,10.0,ESE,3.5,-,N/A,,Partly Cloudy,120,2013-10-12 13:53:00
10:53 AM,66.9,55.0,66,30.08,10.0,SSE,3.5,-,N/A,,Clear,150,2013-10-12 14:53:00
11:53 AM,73.9,53.1,48,30.08,10.0,South,6.9,-,N/A,,Clear,190,2013-10-12 15:53:00
12:53 PM,75.9,55.0,48,30.09,10.0,Variable,6.9,-,N/A,,Clear,0,2013-10-12 16:53:00
1:53 PM,75.9,55.0,48,30.07,10.0,Variable,5.8,-,N/A,,Scattered Clouds,0,2013-10-12 17:53:00
2:53 PM,78.1,55.0,45,30.05,10.0,SW,8.1,-,N/A,,Clear,220,2013-10-12 18:53:00
3:53 PM,75.0,55.0,50,30.05,10.0,SSW,4.6,-,N/A,,Clear,200,2013-10-12 19:53:00
4:53 PM,73.9,55.9,53,30.05,10.0,SSW,3.5,-,N/A,,Clear,200,2013-10-12 20:53:00
5:53 PM,73.0,60.1,64,30.06,10.0,Calm,Calm,-,N/A,,Scattered Clouds,0,2013-10-12 21:53:00
6:53 PM,73.0,57.9,59,30.06,10.0,Calm,Calm,-,N/A,,Clear,0,2013-10-12 22:53:00
7:53 PM,66.9,61.0,81,30.08,10.0,Calm,Calm,-,N/A,,Overcast,0,2013-10-12 23:53:00
8:53 PM,64.9,60.1,84,30.09,10.0,Calm,Calm,-,N/A,,Overcast,0,2013-10-13 00:53:00
9:53 PM,62.1,59.0,90,30.10,10.0,Calm,Calm,-,N/A,,Partly Cloudy,0,2013-10-13 01:53:00
10:53 PM,63.0,60.1,90,30.11,9.0,Calm,Calm,-,N/A,,Overcast,0,2013-10-13 02:53:00
11:53 PM,63.0,60.1,90,30.13,9.0,Calm,Calm,-,N/A,,Overcast,0,2013-10-13 03:53:00